User: anonymous
Location: Bakersfield
(35.3730°N, 119.0180°W)
Time: 23:55:03
(UTC-07:00)
Language:

ATLAS 5 CENTAUR R/B - Orbit

View from above orbital plane
View from above orbital plane
View from above satellite
View from above satellite

Ground track
Ground track

The orbit data is extracted from the following two-line orbital elements,

1 31702U 07027B   14237.11510537 0.00000100  00000-0  42950-4 0    07
2 31702  63.3790 332.8328 0157000 350.7330   9.2670 14.18155528    00
Epoch (UTC): 25 August 2014 02:45:45
Eccentricity: 0.0157000
inclination: 63.3790°
perigee height: 718 km
apogee height: 945 km
right ascension of ascending node: 332.8328°
argument of perigee: 350.7330°
revolutions per day: 14.18155528
mean anomaly at epoch: 9.2670°
orbit number at epoch: 0

The dashed part of the orbit path shows where the satellite is in the earth's shadow,  

DLR